This demonstration page uses our WeatherBlox Daily Observations layout. Learn more.

Left ArrowRight Arrow

Hourly Observations for November 14, 2015

Temp ( °F °C ) Dew Point ( °F °C ) Humidity (%) Winds ( mph kmh ) Pressure ( in mb ) Visibility ( mi km ) Precip ( " mm )
12:53 am 00:53 Clear 48 8.9 35 1.7 61 61 SSW 9 15 29.72 1007 10 16 N/A
1:53 am 01:53 Clear 47 8.3 34 1.1 61 61 SW 12 19 29.71 1006 10 16 N/A
2:53 am 02:53 Clear 50 10 34 1.1 54 54 SW 15 24 29.71 1006 10 16 N/A
3:53 am 03:53 Clear 51 10.6 34 1.1 52 52 SW 16 26 29.71 1006 10 16 N/A
4:53 am 04:53 Clear 50 10 34 1.1 54 54 SW 16 26 29.72 1007 10 16 N/A
5:53 am 05:53 Clear 46 7.8 33 0.6 61 61 WSW 9 15 29.73 1007 10 16 N/A
6:53 am 06:53 Clear 41 5 32 undefined 70 70 SW 10 17 29.74 1007 10 16 N/A
7:53 am 07:53 Sunny 41 5 32 undefined 70 70 W 3 6 29.76 1008 10 16 N/A
8:53 am 08:53 Sunny 52 11.1 33 0.6 49 49 SW 12 19 29.74 1007 10 16 N/A
9:53 am 09:53 Sunny 53 11.7 35 1.7 51 51 WNW 5 7 29.75 1007 10 16 N/A
10:53 am 10:53 Sunny 60 15.6 32 undefined 35 35 SW 18 30 29.72 1007 10 16 N/A
11:53 am 11:53 Mostly Sunny 61 16.1 32 undefined 34 34 SW 17 28 29.70 1006 10 16 N/A
12:53 pm 12:53 Sunny 61 16.1 31 -0.6 32 32 WSW 15 24 29.69 1006 10 16 N/A
1:53 pm 13:53 Sunny 62 16.7 31 -0.6 31 31 SW 13 20 29.68 1005 10 16 N/A
2:53 pm 14:53 Sunny 60 15.6 32 undefined 35 35 WSW 6 9 29.69 1005 10 16 N/A
3:53 pm 15:53 Sunny 58 14.4 32 undefined 38 38 N N/A 29.69 1005 10 16 N/A
4:53 pm 16:53 Clear 51 10.6 31 -0.6 46 46 SSW 9 15 29.70 1006 10 16 N/A
5:53 pm 17:53 Clear 52 11.1 29 -1.7 41 41 N N/A 29.70 1006 10 16 N/A
6:53 pm 18:53 Clear 50 10 30 -1.1 46 46 N N/A 29.70 1006 10 16 N/A
7:53 pm 19:53 Clear 53 11.7 29 -1.7 40 40 SW 8 13 29.70 1006 10 16 N/A
8:53 pm 20:53 Clear 47 8.3 30 -1.1 52 52 WNW 6 9 29.70 1006 10 16 N/A
9:53 pm 21:53 Clear 46 7.8 30 -1.1 54 54 WSW 6 9 29.70 1006 10 16 N/A
10:53 pm 22:53 Clear 46 7.8 31 -0.6 56 56 SW 10 17 29.68 1005 10 16 N/A
11:53 pm 23:53 Clear 41 5 30 -1.1 65 65 WSW 8 13 29.69 1006 10 16 N/A

Powered by AerisWeather